Rifle, CO

3:18 AM MDT on July 22, 2017 (GMT -0600)
Garfield County Regional

Weather History for KRIL - November, 2013

Change the Weather History Date:

Thursday, November 7, 2013

  Actual Average Record
Temperature  
Mean Temperature 37 °F 39 °F  
Max Temperature 53 °F 53 °F 78 °F (1934)
Min Temperature 21 °F 26 °F 10 °F (1967)
Degree Days  
Heating Degree Days 28 26  
Month to date heating degree days 197 170  
Since 1 July heating degree days 875 814  
Cooling Degree Days 0 0  
Month to date cooling degree days 0 0  
Year to date cooling degree days 798 541  
Moisture  
Dew Point 22 °F    
Average Humidity 58    
Maximum Humidity 88    
Minimum Humidity 28    
Precipitation  
Precipitation 0.00 in 0.05 in 0.70 in (1945)
Month to date precipitation 0.03 0.37  
Year to date precipitation 10.08 12.73  
Sea Level Pressure  
Sea Level Pressure 30.44 in    
Wind  
Wind Speed 1 mph (South)    
Max Wind Speed 8 mph    
Max Gust Speed 8 mph    
Visibility 10 miles    
Events      
T = Trace of Precipitation, MM = Missing Value Source: NWS Daily Summary

Daily Weather History Graph

Daily Weather History Graph

Search for Another Location

Airport or City:

Trip Planner

Search our weather history database for the weather conditions in past years. The results will help you decide how hot, cold, wet, or windy it might be!

Date:

Astronomy

Nov. 07, 2013 Rise Set
Actual Time 6:46 AM MST 5:02 PM MST
Civil Twilight 6:17 AM MST 5:30 PM MST
Nautical Twilight 5:45 AM MST 6:02 PM MST
Astronomical Twilight 5:14 AM MST 6:34 PM MST
Moon 10:57 AM MST (11/7) 9:17 PM MST (11/7)
Length of Visible Light 11h 12m
Length of Day
10h 16m
Waxing Crescent, 23% of the Moon is Illuminated
Nov 7
Waxing Crescent
Nov 9
First Quarter
Nov 17
Full
Nov 25
Last Quarter
Dec 2
New

Hourly Weather History & Observations

Time (MST) Temp. Windchill Dew Point Humidity Pressure Visibility Wind Dir Wind Speed Gust Speed Precip Events Conditions
12:53 AM 26.1 °F - 19.9 °F 78% 30.58 in 10.0 mi Calm Calm - N/A   Clear
1:53 AM 25.0 °F - 19.0 °F 78% 30.58 in 10.0 mi Calm Calm - N/A   Clear
2:53 AM 24.1 °F - 18.0 °F 77% 30.58 in 10.0 mi Calm Calm - N/A   Clear
3:53 AM 21.9 °F - 18.0 °F 85% 30.58 in 10.0 mi Calm Calm - N/A   Clear
4:53 AM 21.9 °F - 17.1 °F 82% 30.60 in 10.0 mi Calm Calm - N/A   Clear
5:53 AM 23.0 °F - 18.0 °F 81% 30.61 in - Calm Calm - N/A   Clear
6:53 AM 21.9 °F 17.2 °F 18.0 °F 85% 30.64 in 10.0 mi SSW 3.5 mph - N/A   Clear
7:53 AM 25.0 °F - 21.0 °F 85% 30.64 in 10.0 mi Calm Calm - N/A   Clear
8:53 AM 30.0 °F - 21.0 °F 69% 30.62 in 10.0 mi Calm Calm - N/A   Clear
9:53 AM 34.0 °F - 21.0 °F 59% 30.59 in 10.0 mi Calm Calm - N/A   Clear
10:53 AM 37.9 °F - 21.0 °F 51% 30.55 in 10.0 mi Calm Calm - N/A   Clear
11:53 AM 42.1 °F - 21.0 °F 43% 30.47 in 10.0 mi Calm Calm - N/A   Clear
12:53 PM 45.0 °F 43.5 °F 21.0 °F 39% 30.40 in 10.0 mi Variable 3.5 mph - N/A   Clear
1:53 PM 50.0 °F - 21.0 °F 32% 30.34 in 10.0 mi Calm Calm - N/A   Clear
2:53 PM 51.1 °F - 21.0 °F 31% 30.32 in 10.0 mi West 3.5 mph - N/A   Clear
3:53 PM 52.0 °F - 19.9 °F 28% 30.30 in 10.0 mi Calm Calm - N/A   Clear
4:53 PM 48.0 °F - 23.0 °F 37% 30.31 in 10.0 mi NW 3.5 mph - N/A   Clear
5:53 PM 43.0 °F 40.3 °F 26.1 °F 51% 30.32 in 10.0 mi SE 4.6 mph - N/A   Mostly Cloudy
6:53 PM 41.0 °F 38.0 °F 28.0 °F 60% 30.32 in 10.0 mi SSE 4.6 mph - N/A   Scattered Clouds
7:53 PM 39.9 °F - 28.0 °F 63% 30.30 in 10.0 mi Calm Calm - N/A   Clear
8:53 PM 39.0 °F 36.8 °F 28.0 °F 65% 30.27 in 10.0 mi SSE 3.5 mph - N/A   Partly Cloudy
9:53 PM 37.0 °F - 27.0 °F 67% 30.25 in 10.0 mi Calm Calm - N/A   Clear
10:53 PM 35.1 °F - 26.1 °F 70% 30.22 in 10.0 mi Calm Calm - N/A   Clear
11:53 PM 34.0 °F - 27.0 °F 75% 30.20 in 10.0 mi Calm Calm - N/A   Scattered Clouds